| time (UTC) | temp F | wind direction | speed MPH | gust MPH | rain 1hr in | rain 24hr in | rain mn in | humidity % | barometer mb |
| 20260502114542 | 35 | 294 | 0.0 | 3.0 | 0.00 | 0.23 | 0.03 | 98 | 1017.4 |
| 20260502114042 | 35 | 294 | 0.0 | 3.0 | 0.00 | 0.23 | 0.03 | 98 | 1017.3 |
| 20260502113546 | 35 | 294 | 0.0 | 3.0 | 0.00 | 0.23 | 0.03 | 98 | 1017.4 |
| 20260502113042 | 35 | 305 | 0.0 | 6.0 | 0.00 | 0.23 | 0.03 | 98 | 1017.3 |
| 20260502112545 | 35 | 305 | 0.0 | 6.0 | 0.00 | 0.23 | 0.03 | 98 | 1017.2 |
| 20260502112042 | 34 | 288 | 1.0 | 6.0 | 0.00 | 0.23 | 0.03 | 98 | 1017.3 |
| 20260502111541 | 34 | 293 | 2.0 | 4.0 | 0.00 | 0.23 | 0.03 | 98 | 1017.2 |
| 20260502111046 | 34 | 314 | 3.0 | 4.0 | 0.00 | 0.23 | 0.03 | 98 | 1017.2 |
| 20260502110541 | 34 | 302 | 3.0 | 4.0 | 0.00 | 0.23 | 0.03 | 98 | 1017.2 |
| 20260502110042 | 34 | 322 | 1.0 | 4.0 | 0.00 | 0.23 | 0.03 | 98 | 1017.1 |
| 20260502105542 | 34 | 322 | 2.0 | 4.0 | 0.00 | 0.24 | 0.03 | 98 | 1017.1 |
| 20260502105042 | 35 | 316 | 2.0 | 4.0 | 0.00 | 0.24 | 0.03 | 98 | 1017.1 |
| 20260502104542 | 35 | 325 | 1.0 | 6.0 | 0.00 | 0.24 | 0.03 | 98 | 1017.1 |
| 20260502104040 | 35 | 318 | 3.0 | 6.0 | 0.00 | 0.24 | 0.03 | 98 | 1017.2 |
| 20260502103542 | 35 | 316 | 0.0 | 6.0 | 0.00 | 0.24 | 0.03 | 98 | 1017.1 |
| 20260502103040 | 35 | 302 | 4.0 | 5.0 | 0.00 | 0.24 | 0.03 | 98 | 1017.1 |
| 20260502102541 | 35 | 312 | 2.0 | 4.0 | 0.00 | 0.24 | 0.03 | 98 | 1017.1 |
| 20260502102042 | 36 | 305 | 0.0 | 4.0 | 0.00 | 0.24 | 0.03 | 98 | 1017.1 |
| 20260502101541 | 36 | 311 | 2.0 | 5.0 | 0.00 | 0.24 | 0.03 | 98 | 1017.0 |
| 20260502101043 | 36 | 301 | 1.0 | 5.0 | 0.00 | 0.24 | 0.03 | 98 | 1017.1 |
| 20260502100539 | 36 | 266 | 1.0 | 5.0 | 0.00 | 0.24 | 0.03 | 98 | 1017.1 |
| 20260502014032 | 42 | 4 | 0.0 | 0.0 | 0.00 | 0.21 | 0.21 | 93 | 1016.7 |
| 20260502013534 | 42 | 4 | 0.0 | 0.0 | 0.00 | 0.21 | 0.21 | 93 | 1016.7 |
| 20260502013036 | 43 | 4 | 0.0 | 0.0 | 0.00 | 0.21 | 0.21 | 92 | 1016.6 |
| 20260502012535 | 43 | 4 | 0.0 | 0.0 | 0.00 | 0.21 | 0.21 | 92 | 1016.5 |
| 20260502012036 | 43 | 4 | 0.0 | 0.0 | 0.00 | 0.21 | 0.21 | 92 | 1016.5 |
| 20260502011535 | 43 | 4 | 0.0 | 0.0 | 0.00 | 0.21 | 0.21 | 91 | 1016.5 |
| 20260502011035 | 43 | 4 | 0.0 | 0.0 | 0.00 | 0.21 | 0.21 | 91 | 1016.4 |
| 20260502010535 | 43 | 4 | 0.0 | 0.0 | 0.00 | 0.21 | 0.21 | 90 | 1016.4 |
| 20260502010104 | 43 | 4 | 0.0 | 0.0 | 0.00 | 0.21 | 0.21 | 90 | 1016.5 |
| 20260502005534 | 43 | 4 | 0.0 | 0.0 | 0.00 | 0.21 | 0.21 | 90 | 1016.5 |
| 20260502005035 | 43 | 4 | 0.0 | 0.0 | 0.00 | 0.21 | 0.21 | 90 | 1016.5 |
| 20260502004534 | 43 | 4 | 0.0 | 0.0 | 0.00 | 0.21 | 0.21 | 89 | 1016.5 |
| 20260502004031 | 43 | 4 | 0.0 | 0.0 | 0.00 | 0.21 | 0.21 | 89 | 1016.5 |
| 20260502003530 | 43 | 4 | 0.0 | 0.0 | 0.00 | 0.21 | 0.21 | 88 | 1016.4 |
| 20260502003029 | 43 | 4 | 0.0 | 0.0 | 0.00 | 0.21 | 0.21 | 88 | 1016.4 |
| 20260502002529 | 43 | 4 | 0.0 | 0.0 | 0.00 | 0.21 | 0.21 | 87 | 1016.2 |
| 20260502002028 | 43 | 4 | 0.0 | 0.0 | 0.00 | 0.21 | 0.21 | 87 | 1016.1 |
| 20260502001528 | 43 | 4 | 0.0 | 0.0 | 0.00 | 0.21 | 0.21 | 87 | 1016.0 |
| 20260502001028 | 43 | 4 | 0.0 | 0.0 | 0.00 | 0.21 | 0.21 | 86 | 1015.8 |
| 20260502000527 | 43 | 4 | 0.0 | 0.0 | 0.01 | 0.21 | 0.21 | 86 | 1015.8 |
| 20260502000027 | 44 | 4 | 0.0 | 0.0 | 0.01 | 0.21 | 0.21 | 86 | 1015.7 |
| 20260501235527 | 44 | 4 | 0.0 | 0.0 | 0.01 | 0.21 | 0.21 | 85 | 1015.6 |
| 20260501235027 | 44 | 4 | 0.0 | 0.0 | 0.01 | 0.21 | 0.21 | 85 | 1015.5 |
| 20260501234527 | 44 | 4 | 0.0 | 0.0 | 0.01 | 0.21 | 0.21 | 85 | 1015.4 |
| 20260501234026 | 44 | 4 | 0.0 | 3.0 | 0.01 | 0.21 | 0.21 | 84 | 1015.4 |
| 20260501233526 | 44 | 4 | 0.0 | 3.0 | 0.01 | 0.21 | 0.21 | 83 | 1015.3 |
| 20260501233026 | 44 | 4 | 0.0 | 2.0 | 0.01 | 0.21 | 0.21 | 82 | 1015.3 |
| 20260501232526 | 44 | 323 | 2.0 | 3.0 | 0.01 | 0.21 | 0.21 | 83 | 1015.3 |
| 20260501232026 | 44 | 11 | 0.0 | 3.0 | 0.01 | 0.21 | 0.21 | 84 | 1015.3 |
| 20260501231527 | 44 | 11 | 0.0 | 2.0 | 0.01 | 0.21 | 0.21 | 83 | 1015.3 |
| 20260501231025 | 44 | 8 | 1.0 | 2.0 | 0.01 | 0.21 | 0.21 | 83 | 1015.3 |
| 20260501230525 | 44 | 8 | 0.0 | 2.0 | 0.00 | 0.20 | 0.20 | 84 | 1015.4 |
| 20260501230025 | 44 | 340 | 0.0 | 4.0 | 0.00 | 0.20 | 0.20 | 83 | 1015.5 |
| 20260501225526 | 44 | 305 | 0.0 | 5.0 | 0.00 | 0.20 | 0.20 | 84 | 1015.5 |
| 20260501225025 | 44 | 330 | 0.0 | 5.0 | 0.00 | 0.20 | 0.20 | 83 | 1015.5 |
| 20260501224524 | 44 | 311 | 3.0 | 5.0 | 0.00 | 0.20 | 0.20 | 83 | 1015.5 |
| 20260501224025 | 44 | 309 | 3.0 | 5.0 | 0.00 | 0.20 | 0.20 | 84 | 1015.6 |
| 20260501223525 | 44 | 333 | 0.0 | 4.0 | 0.00 | 0.20 | 0.20 | 85 | 1015.5 |
| 20260501223027 | 44 | 294 | 0.0 | 4.0 | 0.00 | 0.20 | 0.20 | 85 | 1015.5 |
| 20260501222524 | 44 | 6 | 0.0 | 6.0 | 0.00 | 0.20 | 0.20 | 84 | 1015.4 |
| 20260501222025 | 44 | 14 | 0.0 | 6.0 | 0.00 | 0.20 | 0.20 | 83 | 1015.3 |
| 20260501221525 | 44 | 309 | 0.0 | 6.0 | 0.00 | 0.20 | 0.20 | 84 | 1015.3 |
| 20260501221053 | 44 | 304 | 0.0 | 6.0 | 0.00 | 0.20 | 0.20 | 87 | 1015.3 |
| 20260501220524 | 44 | 287 | 1.0 | 6.0 | 0.00 | 0.20 | 0.20 | 86 | 1015.2 |
| 20260501220054 | 44 | 17 | 0.0 | 6.0 | 0.00 | 0.20 | 0.20 | 86 | 1015.1 |
| 20260501215559 | 44 | 339 | 0.0 | 6.0 | 0.00 | 0.20 | 0.20 | 85 | 1015.1 |
| 20260501215029 | 44 | 326 | 0.0 | 10.0 | 0.00 | 0.20 | 0.20 | 85 | 1015.1 |
| 20260501214528 | 44 | 325 | 2.0 | 10.0 | 0.00 | 0.20 | 0.20 | 84 | 1015.2 |
| 20260501214025 | 44 | 28 | 3.0 | 10.0 | 0.00 | 0.20 | 0.20 | 83 | 1015.1 |
| 20260501213523 | 44 | 322 | 2.0 | 10.0 | 0.00 | 0.20 | 0.20 | 83 | 1015.0 |
| 20260501213023 | 44 | 3 | 4.0 | 10.0 | 0.00 | 0.20 | 0.20 | 84 | 1015.0 |
| 20260501212522 | 44 | 1 | 5.0 | 10.0 | 0.00 | 0.20 | 0.20 | 87 | 1015.0 |
| 20260501212022 | 43 | 352 | 0.0 | 10.0 | 0.00 | 0.20 | 0.20 | 85 | 1015.0 |
| 20260501211522 | 43 | 314 | 5.0 | 10.0 | 0.00 | 0.20 | 0.20 | 87 | 1014.9 |
| 20260501211022 | 43 | 293 | 6.0 | 10.0 | 0.00 | 0.20 | 0.20 | 89 | 1014.9 |
| 20260501210522 | 43 | 340 | 4.0 | 9.0 | 0.00 | 0.20 | 0.20 | 95 | 1014.9 |
| 20260501210022 | 43 | 281 | 6.0 | 10.0 | 0.00 | 0.20 | 0.20 | 95 | 1014.8 |
| 20260501205523 | 42 | 328 | 4.0 | 10.0 | 0.00 | 0.20 | 0.20 | 96 | 1014.7 |
| 20260501205021 | 42 | 325 | 2.0 | 10.0 | 0.00 | 0.20 | 0.20 | 96 | 1014.7 |
| 20260501204521 | 42 | 352 | 5.0 | 10.0 | 0.00 | 0.20 | 0.20 | 96 | 1014.8 |
| 20260501204021 | 41 | 354 | 4.0 | 11.0 | 0.00 | 0.20 | 0.20 | 97 | 1014.7 |
| 20260501203521 | 41 | 345 | 4.0 | 11.0 | 0.00 | 0.20 | 0.20 | 97 | 1014.5 |
| 20260501203020 | 41 | 350 | 2.0 | 11.0 | 0.00 | 0.20 | 0.20 | 97 | 1014.5 |
| 20260501202523 | 42 | 359 | 2.0 | 11.0 | 0.00 | 0.20 | 0.20 | 97 | 1014.4 |
| 20260501202050 | 42 | 11 | 1.0 | 12.0 | 0.00 | 0.20 | 0.20 | 98 | 1014.4 |
| 20260501201522 | 42 | 27 | 0.0 | 12.0 | 0.00 | 0.20 | 0.20 | 97 | 1014.2 |
| 20260501201020 | 42 | 349 | 0.0 | 12.0 | 0.00 | 0.20 | 0.20 | 97 | 1014.1 |
| 20260501200520 | 42 | 8 | 5.0 | 11.0 | 0.01 | 0.20 | 0.20 | 97 | 1014.1 |
| 20260501200050 | 42 | 352 | 0.0 | 11.0 | 0.01 | 0.20 | 0.20 | 97 | 1014.0 |
| 20260501195520 | 42 | 328 | 5.0 | 11.0 | 0.01 | 0.20 | 0.20 | 97 | 1014.1 |
| 20260501195020 | 42 | 342 | 0.0 | 6.0 | 0.01 | 0.20 | 0.20 | 98 | 1014.1 |
| 20260501194550 | 42 | 332 | 0.0 | 6.0 | 0.01 | 0.20 | 0.20 | 98 | 1014.0 |
| 20260501194019 | 41 | 14 | 5.0 | 8.0 | 0.01 | 0.20 | 0.20 | 98 | 1014.0 |
| 20260501193549 | 41 | 343 | 0.0 | 8.0 | 0.01 | 0.20 | 0.20 | 98 | 1014.0 |
| 20260501193050 | 41 | 343 | 0.0 | 9.0 | 0.01 | 0.20 | 0.20 | 98 | 1013.9 |
| 20260501192519 | 41 | 340 | 6.0 | 14.0 | 0.01 | 0.20 | 0.20 | 98 | 1013.9 |
| 20260501192050 | 42 | 353 | 3.0 | 14.0 | 0.01 | 0.20 | 0.20 | 98 | 1013.7 |
| 20260501191554 | 42 | 343 | 4.0 | 14.0 | 0.01 | 0.20 | 0.20 | 98 | 1013.7 |
| 20260501191055 | 42 | 8 | 3.0 | 8.0 | 0.01 | 0.20 | 0.20 | 98 | 1013.7 |
| 20260501190555 | 42 | 307 | 1.0 | 8.0 | 0.00 | 0.19 | 0.19 | 98 | 1013.6 |
| 20260501190054 | 42 | 10 | 3.0 | 7.0 | 0.00 | 0.19 | 0.19 | 98 | 1013.6 |
| 20260501185555 | 41 | 21 | 3.0 | 7.0 | 0.00 | 0.19 | 0.19 | 98 | 1013.6 |
| 20260501185053 | 41 | 37 | 0.0 | 7.0 | 0.00 | 0.19 | 0.19 | 97 | 1013.5 |
| 20260501184554 | 41 | 325 | 2.0 | 6.0 | 0.00 | 0.19 | 0.19 | 98 | 1013.4 |
| 20260501184053 | 41 | 359 | 5.0 | 8.0 | 0.00 | 0.19 | 0.19 | 98 | 1013.4 |
| 20260501183553 | 41 | 15 | 0.0 | 8.0 | 0.00 | 0.19 | 0.19 | 98 | 1013.4 |
| 20260501183054 | 41 | 15 | 0.0 | 8.0 | 0.00 | 0.19 | 0.19 | 98 | 1013.4 |
| 20260501182600 | 41 | 346 | 0.0 | 8.0 | 0.00 | 0.19 | 0.19 | 98 | 1013.3 |
| 20260501182053 | 41 | 21 | 2.0 | 8.0 | 0.00 | 0.20 | 0.19 | 98 | 1013.2 |
| 20260501181552 | 41 | 330 | 0.0 | 10.0 | 0.01 | 0.20 | 0.19 | 98 | 1013.2 |
| 20260501181053 | 41 | 321 | 0.0 | 10.0 | 0.01 | 0.20 | 0.19 | 98 | 1013.2 |
| 20260501180552 | 41 | 328 | 0.0 | 10.0 | 0.01 | 0.20 | 0.19 | 98 | 1013.2 |
| 20260501180050 | 41 | 359 | 0.0 | 10.0 | 0.02 | 0.20 | 0.19 | 98 | 1013.1 |
| 20260501175547 | 41 | 17 | 3.0 | 10.0 | 0.02 | 0.20 | 0.19 | 98 | 1013.0 |
| 20260501175047 | 42 | 15 | 0.0 | 8.0 | 0.03 | 0.20 | 0.19 | 98 | 1013.1 |
| 20260501174548 | 42 | 328 | 6.0 | 7.0 | 0.03 | 0.20 | 0.19 | 98 | 1013.1 |
| 20260501174049 | 42 | 15 | 6.0 | 11.0 | 0.03 | 0.20 | 0.19 | 98 | 1013.1 |
| 20260501173548 | 43 | 338 | 6.0 | 11.0 | 0.03 | 0.20 | 0.19 | 98 | 1012.9 |
| 20260501173054 | 43 | 359 | 3.0 | 11.0 | 0.03 | 0.21 | 0.19 | 97 | 1012.9 |
| 20260501172557 | 44 | 330 | 0.0 | 6.0 | 0.04 | 0.21 | 0.19 | 98 | 1012.7 |
| 20260501172051 | 44 | 330 | 0.0 | 6.0 | 0.04 | 0.21 | 0.19 | 97 | 1012.8 |
| 20260501171548 | 45 | 330 | 0.0 | 6.0 | 0.03 | 0.20 | 0.18 | 97 | 1012.6 |
| 20260501171047 | 46 | 248 | 0.0 | 0.0 | 0.04 | 0.20 | 0.18 | 98 | 1012.6 |
| 20260501170551 | 45 | 248 | 0.0 | 0.0 | 0.04 | 0.20 | 0.18 | 98 | 1012.5 |
| 20260501170048 | 45 | 248 | 0.0 | 0.0 | 0.03 | 0.19 | 0.17 | 98 | 1012.5 |
| 20260501165546 | 45 | 248 | 0.0 | 0.0 | 0.03 | 0.19 | 0.17 | 98 | 1012.5 |
| 20260501165048 | 45 | 248 | 0.0 | 0.0 | 0.03 | 0.18 | 0.16 | 98 | 1012.6 |
| 20260501164544 | 45 | 248 | 0.0 | 0.0 | 0.03 | 0.18 | 0.16 | 98 | 1012.6 |
| 20260501164044 | 44 | 248 | 0.0 | 0.0 | 0.03 | 0.18 | 0.16 | 98 | 1012.5 |
| 20260501163544 | 45 | 248 | 0.0 | 0.0 | 0.03 | 0.18 | 0.16 | 98 | 1012.6 |
| 20260501163043 | 44 | 248 | 0.0 | 0.0 | 0.03 | 0.18 | 0.16 | 98 | 1012.5 |
| 20260501162543 | 44 | 248 | 0.0 | 0.0 | 0.02 | 0.17 | 0.15 | 98 | 1012.5 |
| 20260501162043 | 44 | 248 | 0.0 | 0.0 | 0.02 | 0.17 | 0.15 | 98 | 1012.6 |
| 20260501161543 | 44 | 248 | 0.0 | 5.0 | 0.02 | 0.17 | 0.15 | 98 | 1012.5 |
| 20260501161043 | 44 | 248 | 0.0 | 5.0 | 0.02 | 0.16 | 0.14 | 98 | 1012.5 |
| 20260501160543 | 44 | 248 | 0.0 | 5.0 | 0.02 | 0.16 | 0.14 | 98 | 1012.5 |